sat.trackr.live / text

‹ back to catalog

STARLINK-32732

NORAD 62488 · 2025-003B

PAYLOAD ACTIVE UNKNOWN

§ Identity

Operator
Country
US
Launch date
2025-01-06
Launch site
AFETR
Launch vehicle
Mass (kg)
RCS (m²)

Purposes: comms

External: N2YO · Heavens-Above · Gunter

§ Orbital elements

Epoch: 2026-09-21T16:52:51.325248Z

Period
94.27 min
Inclination
43.0032°
Eccentricity
0.0001555
Mean motion
15.27605611 rev/d
Perigee alt
481.9 km
Apogee alt
484.0 km
Semi-major
6,861.1 km
B*
3.3366e-4
RAAN
261.6144°
Arg perigee
272.3689°
Mean anomaly
87.6984°
Rev number
9,653

§ Raw data

STARLINK-327321 62488U 25003B   26264.70337182  .00008938  00000+0  33366-3 0  99902 62488  43.0032 261.6144 0001555 272.3689  87.6984 15.27605611 96538

JSON: /api/v1/satellites/62488 · /tle

For live sub-satellite position, see the globe view (requires WebGL).

§ Visibility from observer

Set your observer location to see the next 7 days of passes ≥ 10°. The values pass through the URL so the page stays shareable.

No JS? Fill the form by hand. The geolocation button needs JavaScript.